This demonstration page uses our WeatherBlox Daily Observations layout. Learn more.

Left ArrowRight Arrow

Hourly Observations for June 29, 2022

Temp ( °F °C ) Dew Point ( °F °C ) Humidity (%) Winds ( mph kmh ) Pressure ( in mb ) Visibility ( mi km ) Precip ( " mm )
12:53 am 00:53 Cloudy 71 21.7 64 17.8 79 79 SE 9 15 30.09 1019 10 16 0.00 0.00
1:53 am 01:53 Clear 70 21.1 65 18.3 84 84 SE 5 7 30.07 1018 10 16 0.00 0.00
2:53 am 02:53 Clear 69 20.6 63 17.2 81 81 NNE 6 9 30.05 1018 10 16 0.00 0.00
3:53 am 03:53 Clear 68 20 63 17.2 84 84 NNW 7 11 30.05 1018 10 16 0.00 0.00
4:53 am 04:53 Clear 67 19.4 63 17.2 87 87 E 5 7 30.07 1018 10 16 0.00 0.00
5:53 am 05:53 Clear 68 20 65 18.3 90 90 NE 5 7 30.07 1018 10 16 0.00 0.00
6:53 am 06:53 Sunny 68 20 64 17.8 87 87 NE 6 9 30.09 1019 10 16 0.00 0.00
7:53 am 07:53 Sunny 70 21.1 64 17.8 82 82 ENE 6 9 30.12 1020 10 16 0.00 0.00
8:53 am 08:53 Sunny 71 21.7 64 17.8 79 79 E 5 7 30.13 1020 10 16 0.00 0.00
9:53 am 09:53 Cloudy 75 23.9 63 17.2 66 66 ESE 10 17 30.13 1020 10 16 0.00 0.00
10:53 am 10:53 Mostly Cloudy 76 24.4 64 17.8 67 67 SE 9 15 30.13 1020 10 16 0.00 0.00
11:53 am 11:53 Mostly Sunny 80 26.7 63 17.2 56 56 SE 8 13 30.12 1020 10 16 0.00 0.00
12:53 pm 12:53 Sunny 84 28.9 62 16.7 48 48 SSE 9 15 30.10 1019 10 16 0.00 0.00
1:53 pm 13:53 Sunny 86 30 62 16.7 45 45 undefined N/A 30.08 1019 10 16 0.00 0.00
2:53 pm 14:53 Sunny 87 30.6 59 15 39 39 S 6 9 30.05 1018 10 16 0.00 0.00
3:53 pm 15:53 Sunny 89 31.7 57 13.9 34 34 SSE 9 15 30.02 1017 10 16 0.00 0.00
4:53 pm 16:53 Sunny 91 32.8 56 13.3 31 31 SE 10 17 30.00 1016 10 16 0.00 0.00
5:53 pm 17:53 Sunny 91 32.8 54 12.2 28 28 SSE 10 17 29.97 1015 10 16 0.00 0.00
6:53 pm 18:53 Sunny 91 32.8 53 11.7 27 27 SSE 12 19 29.94 1014 10 16 0.00 0.00
7:53 pm 19:53 Sunny 89 31.7 53 11.7 29 29 SE 10 17 29.94 1014 10 16 0.00 0.00
8:53 pm 20:53 Sunny 88 31.1 55 12.8 33 33 SSE 8 13 29.95 1014 10 16 0.00 0.00
9:53 pm 21:53 Clear 85 29.4 56 13.3 37 37 ESE 7 11 29.95 1014 10 16 0.00 0.00
10:53 pm 22:53 Clear 83 28.3 59 15 44 44 ESE 14 22 29.98 1015 10 16 0.00 0.00
11:53 pm 23:53 Clear 81 27.2 60 15.6 49 49 SE 9 15 29.99 1016 10 16 0.00 0.00

Powered by AerisWeather